Weather reports worldwide

Advertisment
Estaca de Bares, Spain (8004): temperature & dewpoint: 14.10.2018 16:00:00 - 20.10.2018 16:00:00 (CEST)Estaca de Bares, Spain (8004): wind speed & gusts: 14.10.2018 16:00:00 - 20.10.2018 16:00:00 (CEST)Estaca de Bares, Spain (8004): wind direction: 14.10.2018 16:00:00 - 20.10.2018 16:00:00 (CEST)Estaca de Bares, Spain (8004): reduced air pressure: 14.10.2018 16:00:00 - 20.10.2018 16:00:00 (CEST)Estaca de Bares, Spain (8004): visibility: 14.10.2018 16:00:00 - 20.10.2018 16:00:00 (CEST)Estaca de Bares, Spain (8004): sunshine duration: 14.10.2018 16:00:00 - 20.10.2018 16:00:00 (CEST)Estaca de Bares, Spain (8004): precipitation: 14.10.2018 16:00:00 - 20.10.2018 16:00:00 (CEST)
Date & Time tt [°C] td [°C] ff [km/h] ff [kn] fx [km/h] fx [kn] dd ppp [hPa] vv [km] sd [min] rr [mm]
20.10.2018 16:00:00 - - - - - - - - - - -
20.10.2018 15:00:00 16,8 14,0 - - - - - 1022,3 20 43 0,0
20.10.2018 14:00:00 16,7 13,9 - - - - - 1022,7 20 60 -
20.10.2018 13:00:00 16,1 14,1 - - - - - 1023,4 20 11 0,0
20.10.2018 12:00:00 16,3 14,6 - - - - - 1023,6 20 5 0,0
20.10.2018 11:00:00 15,6 13,9 - - - - - 1022,9 20 20 0,0
20.10.2018 10:00:00 15,2 13,8 - - - - - 1022,6 20 0 0,0
20.10.2018 09:00:00 14,9 13,5 - - - - - 1021,9 20 0 0,0
20.10.2018 08:00:00 15,0 13,6 - - - - - 1021,3 20 0 -
20.10.2018 07:00:00 15,1 13,7 - - - - - 1021,2 20 0 0,0
20.10.2018 06:00:00 14,9 13,3 - - - - - 1021,0 20 0 0,0
20.10.2018 05:00:00 15,2 13,6 - - - - - 1020,8 20 0 0,0
20.10.2018 04:00:00 15,1 13,3 - - - - - 1021,0 20 0 0,0
20.10.2018 03:00:00 15,6 13,8 - - - - - 1021,2 20 0 0,0
20.10.2018 02:00:00 15,7 14,0 - - - - - 1021,3 20 0 -
20.10.2018 01:00:00 15,9 14,2 - - - - - 1021,4 20 0 0,0
20.10.2018 00:00:00 15,7 14,0 - - - - - 1021,1 20 0 0,0
19.10.2018 23:00:00 16,0 14,1 - - - - - 1020,9 20 0 0,0
19.10.2018 22:00:00 16,1 14,1 - - - - - 1020,8 20 0 0,0
19.10.2018 21:00:00 15,7 13,9 - - - - - 1020,7 20 0 0,0
19.10.2018 20:00:00 - - - - - - - - - - -
19.10.2018 19:00:00 15,9 13,9 - - - - - 1019,3 20 43 0,0
19.10.2018 18:00:00 16,7 14,5 - - - - - 1019,2 20 33 0,0
19.10.2018 17:00:00 16,2 14,2 - - - - - 1019,2 20 0 0,0
19.10.2018 16:00:00 16,2 14,2 - - - - - 1019,1 20 7 0,0
19.10.2018 15:00:00 17,2 14,6 - - - - - 1019,3 20 60 0,0
19.10.2018 14:00:00 17,3 14,7 - - - - - 1019,5 20 60 -
19.10.2018 13:00:00 17,0 14,8 - - - - - 1019,3 20 60 0,0
19.10.2018 12:00:00 16,3 14,6 - - - - - 1019,4 20 60 0,0
19.10.2018 11:00:00 15,9 14,6 - - - - - 1019,1 20 46 0,0
19.10.2018 10:00:00 15,6 14,3 - - - - - 1018,6 20 0 0,0
19.10.2018 09:00:00 15,6 14,4 - - - - - 1017,9 20 0 0,0
19.10.2018 08:00:00 15,3 14,0 - - - - - 1017,6 20 0 -
19.10.2018 07:00:00 15,8 14,5 - - - - - 1017,2 20 0 0,0
19.10.2018 06:00:00 15,9 14,6 - - - - - 1017,1 20 0 0,0
19.10.2018 05:00:00 15,6 14,3 - - - - - 1017,3 20 0 0,0
19.10.2018 04:00:00 15,6 14,1 - - - - - 1018,4 20 0 0,0
19.10.2018 03:00:00 15,9 14,4 - - - - - 1018,4 20 0 0,0
19.10.2018 02:00:00 15,4 13,9 - - - - - 1018,4 20 0 -
19.10.2018 01:00:00 15,4 14,1 - - - - - 1018,2 20 0 0,0
19.10.2018 00:00:00 15,4 13,9 - - - - - 1018,0 20 0 0,0
18.10.2018 23:00:00 15,4 13,9 - - - - - 1017,6 20 0 0,0
18.10.2018 22:00:00 15,4 13,9 - - - - - 1017,3 20 0 0,0
18.10.2018 21:00:00 15,5 14,0 - - - - - 1016,8 20 0 0,0
18.10.2018 20:00:00 15,4 13,8 - - - - - 1016,4 20 0 -
18.10.2018 19:00:00 15,5 13,9 24 13 - - NNE 1016,0 20 0 0,0
18.10.2018 18:00:00 15,4 13,6 - - - - - 1016,2 20 0 0,0
18.10.2018 17:00:00 15,7 13,4 - - - - - 1016,2 20 46 0,0
18.10.2018 16:00:00 15,8 13,3 - - - - - 1016,2 20 60 0,0
18.10.2018 15:00:00 16,0 13,3 - - - - - 1016,6 20 41 0,0
18.10.2018 14:00:00 15,7 13,2 - - - - - 1017,3 20 0 -
18.10.2018 13:00:00 15,4 12,8 - - - - - 1017,5 20 0 0,0
18.10.2018 12:00:00 15,3 12,7 - - - - - 1017,5 20 40 0,0
18.10.2018 11:00:00 15,5 12,8 - - - - - 1017,0 20 - -
18.10.2018 10:00:00 14,9 12,5 - - - - - 1016,6 20 0 0,0
18.10.2018 09:00:00 14,6 11,9 22 12 42 23 E 1016,0 20 0 0,0
18.10.2018 08:00:00 14,6 12,3 28 15 49 27 E 1015,4 20 0 -
18.10.2018 07:00:00 14,8 12,3 31 17 55 30 ENE 1015,2 20 0 0,0
18.10.2018 06:00:00 14,7 13,0 35 19 51 27 ENE 1014,6 20 0 0,0
18.10.2018 05:00:00 14,5 13,3 27 15 52 28 ENE 1014,2 20 0 0,8
18.10.2018 04:00:00 14,5 13,3 34 18 51 28 E 1014,1 20 0 0,0
18.10.2018 03:00:00 14,7 13,5 22 12 32 17 E 1014,3 20 0 0,0
18.10.2018 02:00:00 14,1 12,8 20 11 30 16 ESE 1014,5 20 0 -
18.10.2018 01:00:00 14,6 13,4 24 13 29 16 SE 1014,2 20 0 0,0
18.10.2018 00:00:00 14,4 13,2 17 9 24 13 E 1014,3 20 0 0,0
17.10.2018 23:00:00 14,3 12,8 13 7 41 22 E 1014,6 20 0 0,2
17.10.2018 22:00:00 14,1 12,6 24 13 49 26 NE 1014,2 20 0 0,4
17.10.2018 21:00:00 13,9 12,6 31 17 60 32 NE 1014,2 20 0 2,0
17.10.2018 20:00:00 14,1 12,8 27 15 50 27 NE 1013,2 20 0 -
17.10.2018 19:00:00 14,4 12,6 18 10 28 15 E 1013,3 20 0 2,6
17.10.2018 18:00:00 14,0 12,0 11 6 25 14 WSW 1014,1 20 0 2,4
17.10.2018 17:00:00 14,5 12,2 26 14 34 18 W 1013,8 20 0 0,0
17.10.2018 16:00:00 14,7 11,9 31 17 37 20 W 1013,5 20 0 0,0
17.10.2018 15:00:00 15,7 12,2 27 15 34 18 W 1013,7 20 0 0,0
17.10.2018 14:00:00 16,6 12,1 21 11 27 14 WSW 1014,5 20 1 -
17.10.2018 13:00:00 16,3 12,2 15 8 - - WSW 1014,9 20 51 0,0
17.10.2018 12:00:00 15,8 12,5 17 9 - - SE 1015,0 20 28 0,0
17.10.2018 11:00:00 15,0 12,3 - - - - - 1015,7 20 36 0,0
17.10.2018 10:00:00 13,4 10,8 6 3 23 12 SSE 1016,0 20 24 0,0
17.10.2018 09:00:00 13,1 11,0 7 4 22 12 WSW 1016,0 20 0 0,0
17.10.2018 08:00:00 12,5 10,5 9 5 21 11 WSW 1016,4 20 0 -
17.10.2018 07:00:00 12,1 10,0 15 8 17 9 SW 1016,6 20 0 0,0
17.10.2018 06:00:00 12,9 10,8 7 4 18 10 WSW 1016,5 20 0 0,0
17.10.2018 05:00:00 12,7 10,6 10 5 20 11 WSW 1016,9 20 0 0,0
17.10.2018 04:00:00 13,0 10,9 10 5 19 10 WSW 1017,2 20 0 0,0
17.10.2018 03:00:00 13,0 10,9 6 3 19 10 WSW 1017,5 20 0 0,0
17.10.2018 02:00:00 13,2 10,8 11 6 17 9 W 1017,8 20 0 -
17.10.2018 01:00:00 13,7 11,0 5 3 24 13 W 1018,1 20 0 0,0
17.10.2018 00:00:00 14,7 11,9 19 10 26 14 SSE 1018,1 20 0 0,0
16.10.2018 23:00:00 15,1 12,0 18 10 29 16 SE 1018,1 20 0 0,0
16.10.2018 22:00:00 15,2 12,1 19 10 33 18 SE 1017,8 20 0 0,0
16.10.2018 21:00:00 14,9 11,9 23 12 30 16 SE 1017,7 20 0 0,0
16.10.2018 20:00:00 15,1 12,2 28 15 29 16 SE 1017,5 20 35 -
16.10.2018 19:00:00 16,0 12,2 25 13 29 16 ESE 1017,1 20 60 0,0
16.10.2018 18:00:00 16,8 12,1 18 10 28 15 ESE 1016,8 20 60 0,0
16.10.2018 17:00:00 17,4 13,2 22 12 27 15 ESE 1016,8 20 60 0,0
16.10.2018 16:00:00 17,8 13,8 19 10 23 12 ESE 1016,8 20 60 0,0
16.10.2018 15:00:00 17,9 13,7 19 11 22 12 ESE 1016,8 20 60 0,0
16.10.2018 14:00:00 18,1 13,6 20 11 25 14 ESE 1016,9 20 60 -
16.10.2018 13:00:00 18,0 13,3 20 11 26 14 ESE 1016,6 20 60 0,0
16.10.2018 12:00:00 17,5 13,9 19 11 24 13 ESE 1016,3 20 60 0,0
16.10.2018 11:00:00 15,9 13,1 16 9 19 11 SE 1016,1 20 44 0,0
16.10.2018 10:00:00 14,7 12,2 15 8 18 10 SE 1015,3 20 9 0,0
16.10.2018 09:00:00 14,2 11,6 11 6 22 12 SSE 1014,4 20 0 0,0
16.10.2018 08:00:00 14,2 11,6 20 11 23 12 SE 1013,7 20 0 -
16.10.2018 07:00:00 14,3 11,2 15 8 22 12 SE 1013,4 20 0 0,0
16.10.2018 06:00:00 14,7 11,4 20 11 23 12 SE 1013,0 20 0 0,0
16.10.2018 05:00:00 14,3 10,8 14 8 21 11 SE 1012,6 20 0 0,0
16.10.2018 04:00:00 14,4 11,0 18 10 21 11 SE 1012,2 20 0 0,0
16.10.2018 03:00:00 14,3 10,8 14 8 19 11 ESE 1012,1 20 0 0,0
16.10.2018 02:00:00 14,8 10,8 12 7 19 10 SSE 1012,2 20 0 -
16.10.2018 01:00:00 14,6 10,6 13 7 21 11 SSE 1011,8 20 0 0,0
16.10.2018 00:00:00 15,1 11,3 17 9 29 16 SE 1011,2 20 0 0,0
15.10.2018 23:00:00 15,3 11,1 22 12 33 18 SE 1010,5 20 0 0,0
15.10.2018 22:00:00 15,3 11,4 23 13 34 18 SE 1009,7 20 0 0,0
15.10.2018 21:00:00 15,4 11,6 23 12 34 18 ESE 1009,4 20 0 0,0
15.10.2018 20:00:00 15,3 11,7 20 11 34 19 ESE 1008,9 20 1 -
15.10.2018 19:00:00 15,8 11,6 26 14 35 19 ESE 1007,7 20 59 0,0
15.10.2018 18:00:00 16,2 11,1 27 14 41 22 ESE 1007,0 20 55 0,0
15.10.2018 17:00:00 16,4 11,1 21 12 34 18 ESE 1006,3 20 60 0,0
15.10.2018 16:00:00 16,2 10,9 24 13 44 24 ESE 1005,3 20 60 0,0
15.10.2018 15:00:00 16,8 11,3 26 14 50 27 SE 1005,5 20 60 0,0
15.10.2018 14:00:00 16,2 11,6 32 18 50 27 SE 1004,9 20 34 -
15.10.2018 13:00:00 14,8 11,0 26 14 34 18 ESE 1004,6 20 26 0,0
15.10.2018 12:00:00 15,4 11,2 25 13 41 22 SE 1003,3 20 60 0,0
15.10.2018 11:00:00 14,4 10,8 27 15 51 28 SE 1002,5 20 37 0,0
15.10.2018 10:00:00 13,2 10,8 34 19 48 26 ESE 1002,2 20 0 0,0
15.10.2018 09:00:00 12,9 9,9 35 19 45 24 SE 1001,6 20 0 0,0
15.10.2018 08:00:00 12,9 9,3 30 16 38 20 ESE 1001,4 20 0 -
15.10.2018 07:00:00 13,1 8,9 22 12 39 21 ESE 1000,8 20 0 0,2
15.10.2018 06:00:00 12,9 8,1 18 10 41 22 SE 1000,9 20 0 0,4
15.10.2018 05:00:00 13,9 7,4 33 18 56 30 S 1001,0 20 0 0,2
15.10.2018 04:00:00 13,4 7,1 26 14 42 23 SSW 1002,1 20 0 0,0
15.10.2018 03:00:00 12,2 6,4 19 10 35 19 SSE 1003,8 20 0 0,2
15.10.2018 02:00:00 12,1 6,5 19 11 38 20 SSE 1005,7 20 0 -
15.10.2018 01:00:00 13,5 6,4 25 13 40 21 SW 1006,6 20 0 0,0
15.10.2018 00:00:00 13,8 6,8 22 12 36 20 SW 1007,6 20 0 0,0
14.10.2018 23:00:00 13,0 8,5 19 10 25 14 WSW 1008,7 20 0 0,0
14.10.2018 22:00:00 13,3 8,5 18 10 26 14 SW 1009,2 20 0 0,0
14.10.2018 21:00:00 12,9 8,5 19 11 24 13 WSW 1010,0 20 0 0,0
14.10.2018 20:00:00 13,1 9,7 18 10 29 16 WSW 1010,2 20 6 -
14.10.2018 19:00:00 14,2 10,2 22 12 31 17 W 1010,1 20 49 0,0
14.10.2018 18:00:00 15,7 10,0 30 16 36 19 WSW 1010,1 20 60 0,0
14.10.2018 17:00:00 16,1 9,9 34 19 41 22 W 1010,3 20 60 0,0
14.10.2018 16:00:00 15,7 10,0 33 18 38 20 WNW 1010,5 20 41 0,0

tt = temperature
td = dewpoint
ff = wind speed
fx = gusts
dd = wind direction
ppp = reduced air pressure
vv = visibility
sd = sunshine duration
rr = precipitation

Next stations